Tracking 27112 objects as of 27-Mar-2023
HD Live streaming from Space Station
objects crossing your sky now

COSMOS 2531

Track COSMOS 2531 now!
10-day predictions


NORAD ID: 43752
Int'l Code: 2018-097B
Perigee: 1,487.7 km
Apogee: 1,515.2 km
Inclination: 82.5 °
Period: 115.9 minutes
Semi major axis: 7872 km
RCS: Unknown
Launch date: November 30, 2018
Source: Commonwealth of Independent States (former USSR) (CIS)
Launch site: PLESETSK MISSILE AND SPACE COMPLEX (PKMTR)
Your satellite tracking list
Your tracking list is empty




NASA's NSSDC Master Catalog

Two Line Element Set (TLE):
1 43752U 18097B   23085.67888052  .00000024  00000-0  10000-3 0  9998
2 43752  82.5170 234.3791 0017465 105.5950 254.7059 12.42903762195983
Source of the keplerian elements: AFSPC